Voltar ao catálogo

SL-14 R/B

AtivoPO
NORAD 23793·ROCKET BODY·🇷🇺 Russia

Lançado Feb 19, 1996 de Plesetsk Cosmodrome

Loading…

Próximas Passagens (próximas 24 horas)

TLE

AtualizadoSource: Space-Track

Época: Sep 14, 2026, 07:05 UTC

1 23793U 96009G   26257.29523618  .00000029  00000-0  11515-3 0  9993
2 23793  82.5760 352.4372 0045958 129.7763 255.4790 12.55092058400537

Acompanhe SL-14 R/B em tempo real com AllMySat

Download on the App Store